| time (UTC) | temp F | wind direction | speed MPH | gust MPH | rain 1hr in | rain 24hr in | rain mn in | humidity % | barometer mb |
| 20260506091059 | 50 | 0.0 | 0.0 | 0.00 | 0.91 | 0.79 | 99 | 1007.1 | |
| 20260506090057 | 50 | 0.0 | 2.0 | 0.00 | 0.91 | 0.79 | 99 | 1007.1 | |
| 20260506085055 | 51 | 0.0 | 0.0 | 0.00 | 0.91 | 0.79 | 99 | 1007.0 | |
| 20260506084053 | 50 | 0.0 | 0.0 | 0.00 | 0.91 | 0.79 | 99 | 1007.0 | |
| 20260506083051 | 50 | 0.0 | 0.0 | 0.00 | 0.91 | 0.79 | 99 | 1006.9 | |
| 20260506082049 | 51 | 270 | 1.0 | 2.0 | 0.01 | 0.91 | 0.79 | 99 | 1006.9 |
| 20260506081047 | 51 | 0.0 | 0.0 | 0.01 | 0.91 | 0.79 | 99 | 1006.9 | |
| 20260506073039 | 51 | 68 | 0.0 | 2.0 | 0.05 | 0.91 | 0.79 | 99 | 1006.8 |
| 20260506072037 | 51 | 0.0 | 0.0 | 0.04 | 0.90 | 0.78 | 99 | 1006.8 | |
| 20260506071035 | 51 | 0.0 | 2.0 | 0.05 | 0.90 | 0.78 | 99 | 1006.9 | |
| 20260506062025 | 50 | 0.0 | 0.0 | 0.05 | 0.86 | 0.74 | 99 | 1006.7 | |
| 20260506061023 | 50 | 0.0 | 0.0 | 0.05 | 0.85 | 0.73 | 99 | 1006.6 | |
| 20260506051111 | 50 | 82 | 0.0 | 2.0 | 0.04 | 0.81 | 0.69 | 99 | 1006.6 |
| 20260506050109 | 50 | 0.0 | 2.0 | 0.06 | 0.81 | 0.69 | 99 | 1006.4 | |
| 20260506045107 | 50 | 0.0 | 0.0 | 0.07 | 0.81 | 0.69 | 99 | 1006.6 | |
| 20260506044105 | 50 | 0.0 | 0.0 | 0.06 | 0.79 | 0.66 | 99 | 1006.6 | |
| 20260506043103 | 50 | 0.0 | 0.0 | 0.07 | 0.79 | 0.66 | 99 | 1006.7 | |
| 20260506042101 | 51 | 0.0 | 0.0 | 0.07 | 0.78 | 0.65 | 99 | 1006.6 | |
| 20260506041059 | 51 | 0.0 | 0.0 | 0.09 | 0.78 | 0.65 | 99 | 1006.6 | |
| 20260506040057 | 51 | 0.0 | 0.0 | 0.11 | 0.76 | 0.63 | 99 | 1006.7 | |
| 20260506035055 | 51 | 0.0 | 2.0 | 0.12 | 0.74 | 0.61 | 99 | 1006.8 | |
| 20260506034113 | 51 | 0.0 | 0.0 | 0.14 | 0.74 | 0.60 | 99 | 1006.8 | |
| 20260506033051 | 51 | 0.0 | 0.0 | 0.15 | 0.74 | 0.59 | 99 | 1006.9 | |
| 20260506032109 | 51 | 0.0 | 0.0 | 0.17 | 0.74 | 0.58 | 99 | 1007.1 | |
| 20260506031047 | 51 | 0.0 | 0.0 | 0.17 | 0.72 | 0.56 | 99 | 1007.1 | |
| 20260506030045 | 51 | 0.0 | 0.0 | 0.14 | 0.70 | 0.52 | 99 | 1007.3 | |
| 20260506025042 | 51 | 0.0 | 0.0 | 0.14 | 0.67 | 0.50 | 99 | 1007.3 | |
| 20260506024040 | 51 | 0.0 | 0.0 | 0.13 | 0.64 | 0.46 | 99 | 1007.4 | |
| 20260506023038 | 51 | 68 | 0.0 | 2.0 | 0.12 | 0.61 | 0.44 | 99 | 1007.5 |
| 20260506022036 | 51 | 0.0 | 0.0 | 0.11 | 0.59 | 0.41 | 99 | 1007.7 | |
| 20260506021034 | 51 | 0.0 | 2.0 | 0.11 | 0.57 | 0.39 | 99 | 1007.6 | |
| 20260506020052 | 51 | 0.0 | 0.0 | 0.11 | 0.56 | 0.38 | 99 | 1007.7 | |
| 20260506015030 | 51 | 0.0 | 2.0 | 0.12 | 0.53 | 0.35 | 99 | 1007.8 | |
| 20260506014048 | 51 | 0.0 | 0.0 | 0.12 | 0.51 | 0.33 | 99 | 1007.8 | |
| 20260506013027 | 51 | 0.0 | 0.0 | 0.12 | 0.50 | 0.32 | 99 | 1007.8 | |
| 20260506012024 | 51 | 0.0 | 0.0 | 0.13 | 0.48 | 0.31 | 99 | 1007.8 | |
| 20260506011023 | 51 | 0.0 | 0.0 | 0.12 | 0.46 | 0.28 | 99 | 1007.9 | |
| 20260506010020 | 51 | 0.0 | 0.0 | 0.13 | 0.45 | 0.27 | 98 | 1008.0 | |
| 20260506005018 | 51 | 0.0 | 0.0 | 0.11 | 0.41 | 0.24 | 98 | 1008.1 | |
| 20260506004016 | 51 | 0.0 | 0.0 | 0.09 | 0.39 | 0.21 | 98 | 1008.0 | |
| 20260506003115 | 52 | 0.0 | 0.0 | 0.11 | 0.38 | 0.20 | 98 | 1008.3 | |
| 20260506002112 | 52 | 0.0 | 0.0 | 0.09 | 0.35 | 0.18 | 98 | 1008.3 | |
| 20260506001111 | 52 | 0.0 | 0.0 | 0.09 | 0.34 | 0.17 | 98 | 1008.4 | |
| 20260506000108 | 52 | 0.0 | 0.0 | 0.08 | 0.32 | 0.14 | 98 | 1008.6 | |
| 20260505235107 | 52 | 68 | 0.0 | 2.0 | 0.08 | 0.31 | 0.13 | 98 | 1008.7 |
| 20260505234105 | 52 | 0.0 | 0.0 | 0.08 | 0.30 | 0.12 | 98 | 1008.7 | |
| 20260505233102 | 52 | 0.0 | 0.0 | 0.07 | 0.27 | 0.09 | 98 | 1008.8 | |
| 20260505232120 | 52 | 0.0 | 0.0 | 0.07 | 0.26 | 0.08 | 98 | 1008.7 | |
| 20260505231059 | 52 | 0.0 | 0.0 | 0.07 | 0.25 | 0.07 | 98 | 1008.8 | |
| 20260505230056 | 52 | 0.0 | 0.0 | 0.06 | 0.24 | 0.06 | 98 | 1008.9 | |
| 20260505225054 | 52 | 0.0 | 0.0 | 0.06 | 0.22 | 0.05 | 98 | 1008.9 | |
| 20260505224113 | 52 | 90 | 0.0 | 2.0 | 0.06 | 0.21 | 0.04 | 97 | 1008.9 |
| 20260505223050 | 53 | 0.0 | 0.0 | 0.06 | 0.20 | 0.02 | 97 | 1009.1 | |
| 20260505222048 | 52 | 0.0 | 0.0 | 0.06 | 0.19 | 0.01 | 97 | 1009.2 | |
| 20260505221046 | 53 | 0.0 | 2.0 | 0.05 | 0.18 | 0.00 | 97 | 1009.1 | |
| 20260505220044 | 53 | 0.0 | 2.0 | 0.06 | 0.18 | 0.00 | 97 | 1009.2 | |
| 20260505215042 | 53 | 0.0 | 0.0 | 0.05 | 0.17 | 0.17 | 97 | 1009.3 | |
| 20260505214040 | 53 | 68 | 0.0 | 4.0 | 0.04 | 0.15 | 0.15 | 97 | 1009.3 |
| 20260505213038 | 53 | 0.0 | 0.0 | 0.04 | 0.14 | 0.14 | 96 | 1009.4 | |
| 20260505212056 | 53 | 0.0 | 0.0 | 0.02 | 0.13 | 0.13 | 96 | 1009.4 | |
| 20260505211034 | 54 | 0.0 | 0.0 | 0.02 | 0.13 | 0.13 | 96 | 1009.5 | |
| 20260505210112 | 54 | 0.0 | 0.0 | 0.02 | 0.12 | 0.12 | 96 | 1009.5 | |
| 20260505205030 | 54 | 0.0 | 2.0 | 0.02 | 0.13 | 0.12 | 95 | 1009.5 | |
| 20260505204048 | 54 | 0.0 | 0.0 | 0.04 | 0.13 | 0.12 | 95 | 1009.6 | |
| 20260505203106 | 54 | 225 | 0.0 | 2.0 | 0.05 | 0.12 | 0.11 | 95 | 1009.6 |
| 20260505202024 | 54 | 113 | 0.0 | 2.0 | 0.05 | 0.12 | 0.11 | 95 | 1009.5 |
| 20260505201022 | 54 | 113 | 0.0 | 4.0 | 0.05 | 0.12 | 0.11 | 94 | 1009.5 |
| 20260505200020 | 55 | 102 | 1.0 | 6.0 | 0.04 | 0.11 | 0.09 | 94 | 1009.5 |
| 20260505195018 | 55 | 0.0 | 2.0 | 0.04 | 0.11 | 0.09 | 93 | 1009.5 | |
| 20260505194016 | 55 | 90 | 0.0 | 2.0 | 0.02 | 0.09 | 0.08 | 92 | 1009.5 |
| 20260505193114 | 55 | 0.0 | 2.0 | 0.00 | 0.07 | 0.06 | 92 | 1009.6 | |
| 20260505192132 | 56 | 296 | 0.0 | 2.0 | 0.00 | 0.07 | 0.06 | 91 | 1009.5 |
| 20260505191110 | 56 | 304 | 1.0 | 2.0 | 0.00 | 0.07 | 0.06 | 90 | 1009.4 |
| 20260505190128 | 56 | 45 | 0.0 | 2.0 | 0.00 | 0.08 | 0.06 | 90 | 1009.4 |
| 20260505185126 | 56 | 294 | 1.0 | 4.0 | 0.00 | 0.08 | 0.06 | 90 | 1009.4 |
| 20260505184104 | 56 | 6 | 1.0 | 7.0 | 0.00 | 0.11 | 0.06 | 89 | 1009.4 |
| 20260505183102 | 57 | 201 | 1.0 | 4.0 | 0.00 | 0.12 | 0.06 | 89 | 1009.5 |
| 20260505182100 | 57 | 62 | 1.0 | 2.0 | 0.00 | 0.13 | 0.06 | 89 | 1009.5 |
| 20260505181058 | 57 | 57 | 0.0 | 4.0 | 0.00 | 0.13 | 0.06 | 89 | 1009.5 |
| 20260505180056 | 58 | 0 | 0.0 | 2.0 | 0.00 | 0.13 | 0.06 | 88 | 1009.7 |
| 20260505175053 | 58 | 359 | 1.0 | 2.0 | 0.00 | 0.13 | 0.06 | 88 | 1009.6 |
| 20260505174051 | 58 | 8 | 0.0 | 2.0 | 0.00 | 0.13 | 0.06 | 88 | 1009.7 |
| 20260505173050 | 58 | 45 | 0.0 | 2.0 | 0.00 | 0.13 | 0.06 | 87 | 1009.8 |
| 20260505172048 | 59 | 45 | 0.0 | 2.0 | 0.00 | 0.13 | 0.06 | 87 | 1009.7 |
| 20260505171126 | 59 | 50 | 0.0 | 2.0 | 0.00 | 0.13 | 0.06 | 87 | 1009.8 |
| 20260505170044 | 59 | 3 | 1.0 | 2.0 | 0.00 | 0.13 | 0.06 | 87 | 1009.9 |
| 20260505165041 | 59 | 30 | 1.0 | 2.0 | 0.00 | 0.13 | 0.06 | 86 | 1009.9 |
| 20260505164059 | 59 | 45 | 0.0 | 2.0 | 0.00 | 0.13 | 0.06 | 86 | 1010.1 |
| 20260505163037 | 59 | 99 | 1.0 | 2.0 | 0.00 | 0.13 | 0.06 | 85 | 1010.1 |
| 20260505162035 | 59 | 68 | 1.0 | 4.0 | 0.00 | 0.13 | 0.06 | 85 | 1010.1 |
| 20260505161034 | 60 | 56 | 1.0 | 2.0 | 0.00 | 0.13 | 0.06 | 85 | 1010.2 |
| 20260505153135 | 61 | 11 | 0.0 | 2.0 | 0.00 | 0.13 | 0.06 | 82 | 1010.5 |
| 20260505152053 | 61 | 90 | 0.0 | 2.0 | 0.00 | 0.13 | 0.06 | 82 | 1010.4 |
| 20260505151051 | 61 | 1 | 1.0 | 2.0 | 0.00 | 0.13 | 0.06 | 82 | 1010.5 |
| 20260505125023 | 63 | 308 | 1.0 | 4.0 | 0.00 | 0.13 | 0.06 | 82 | 1011.1 |
| 20260505124041 | 63 | 353 | 1.0 | 2.0 | 0.00 | 0.13 | 0.06 | 83 | 1011.2 |
| 20260505123019 | 63 | 55 | 1.0 | 6.0 | 0.00 | 0.13 | 0.06 | 81 | 1011.3 |
| 20260505122017 | 65 | 22 | 1.0 | 2.0 | 0.00 | 0.13 | 0.06 | 79 | 1011.3 |
| 20260505121015 | 65 | 258 | 3.0 | 8.0 | 0.00 | 0.13 | 0.06 | 77 | 1011.4 |
| 20260505120113 | 65 | 261 | 1.0 | 2.0 | 0.00 | 0.13 | 0.06 | 78 | 1011.4 |
| 20260505115111 | 64 | 79 | 1.0 | 4.0 | 0.00 | 0.13 | 0.06 | 77 | 1011.5 |
| 20260505114109 | 65 | 75 | 1.0 | 4.0 | 0.00 | 0.13 | 0.06 | 76 | 1011.5 |
| 20260505113107 | 64 | 68 | 2.0 | 6.0 | 0.00 | 0.13 | 0.06 | 77 | 1011.5 |
| 20260505112105 | 64 | 83 | 1.0 | 4.0 | 0.00 | 0.13 | 0.06 | 78 | 1011.5 |
| 20260505111103 | 64 | 150 | 0.0 | 2.0 | 0.00 | 0.13 | 0.06 | 79 | 1011.7 |
| 20260505110121 | 64 | 120 | 0.0 | 2.0 | 0.00 | 0.13 | 0.06 | 79 | 1011.8 |
| 20260505102053 | 62 | 222 | 1.0 | 2.0 | 0.00 | 0.13 | 0.06 | 83 | 1012.1 |
| 20260505101111 | 62 | 90 | 0.0 | 2.0 | 0.00 | 0.13 | 0.06 | 85 | 1012.1 |
| 20260505100049 | 62 | 90 | 0.0 | 2.0 | 0.00 | 0.13 | 0.06 | 85 | 1012.2 |
| 20260505095047 | 61 | 68 | 0.0 | 4.0 | 0.00 | 0.13 | 0.06 | 87 | 1012.1 |
| 20260505094045 | 60 | 255 | 1.0 | 2.0 | 0.00 | 0.13 | 0.06 | 89 | 1012.2 |
| 20260505093043 | 60 | 270 | 0.0 | 2.0 | 0.00 | 0.13 | 0.06 | 90 | 1012.1 |
| 20260505092101 | 59 | 0.0 | 2.0 | 0.00 | 0.13 | 0.06 | 93 | 1012.2 |